owner,sensor,date,latitude,longitude,vertical_datum,sea_water_practical_salinity,qcFlag 
ENP,ioos.station.NOAA.NDBC:HCEF1:1,2016-06-01T00:00:00Z,25.2540,-80.4440,1.5,8.26,1111122 
ENP,ioos.station.NOAA.NDBC:HCEF1:1,2016-06-01T03:00:00Z,25.2540,-80.4440,1.5,8.34,1111122 
ENP,ioos.station.NOAA.NDBC:HCEF1:1,2016-06-01T06:00:00Z,25.2540,-80.4440,1.5,8.53,1111122 
ENP,ioos.station.NOAA.NDBC:HCEF1:1,2016-06-01T07:00:00Z,25.2540,-80.4440,1.5,8.66,1111122 
ENP,ioos.station.NOAA.NDBC:HCEF1:1,2016-06-01T08:00:00Z,25.2540,-80.4440,1.5,8.75,1111122 
ENP,ioos.station.NOAA.NDBC:HCEF1:1,2016-06-01T09:00:00Z,25.2540,-80.4440,1.5,8.78,1111122 
ENP,ioos.station.NOAA.NDBC:HCEF1:1,2016-06-01T10:00:00Z,25.2540,-80.4440,1.5,8.74,1111122 
ENP,ioos.station.NOAA.NDBC:HCEF1:1,2016-06-01T11:00:00Z,25.2540,-80.4440,1.5,8.46,1111122 
ENP,ioos.station.NOAA.NDBC:HCEF1:1,2016-06-01T12:00:00Z,25.2540,-80.4440,1.5,8.43,1111122 
ENP,ioos.station.NOAA.NDBC:HCEF1:1,2016-06-01T13:00:00Z,25.2540,-80.4440,1.5,8.45,1111122 
ENP,ioos.station.NOAA.NDBC:HCEF1:1,2016-06-01T14:00:00Z,25.2540,-80.4440,1.5,8.45,1111122 
ENP,ioos.station.NOAA.NDBC:HCEF1:1,2016-06-01T15:00:00Z,25.2540,-80.4440,1.5,8.41,1111122 
ENP,ioos.station.NOAA.NDBC:HCEF1:1,2016-06-01T16:00:00Z,25.2540,-80.4440,1.5,8.24,1111122 
ENP,ioos.station.NOAA.NDBC:HCEF1:1,2016-06-01T17:00:00Z,25.2540,-80.4440,1.5,8.07,1111122 
ENP,ioos.station.NOAA.NDBC:HCEF1:1,2016-06-01T18:00:00Z,25.2540,-80.4440,1.5,8.08,1111122 
ENP,ioos.station.NOAA.NDBC:HCEF1:1,2016-06-01T19:00:00Z,25.2540,-80.4440,1.5,8.21,1111122 
ENP,ioos.station.NOAA.NDBC:HCEF1:1,2016-06-01T20:00:00Z,25.2540,-80.4440,1.5,8.44,1111122 
ENP,ioos.station.NOAA.NDBC:HCEF1:1,2016-06-01T21:00:00Z,25.2540,-80.4440,1.5,8.67,1111122 
ENP,ioos.station.NOAA.NDBC:HCEF1:1,2016-06-01T22:00:00Z,25.2540,-80.4440,1.5,8.83,1111122 
ENP,ioos.station.NOAA.NDBC:HCEF1:1,2016-06-01T23:00:00Z,25.2540,-80.4440,1.5,8.89,1111122 
ENP,ioos.station.NOAA.NDBC:HCEF1:1,2016-06-02T00:00:00Z,25.2540,-80.4440,1.5,8.96,1111122 
ENP,ioos.station.NOAA.NDBC:HCEF1:1,2016-06-02T03:00:00Z,25.2540,-80.4440,1.5,8.84,1111122 
ENP,ioos.station.NOAA.NDBC:HCEF1:1,2016-06-02T06:00:00Z,25.2540,-80.4440,1.5,9.04,1111122 
ENP,ioos.station.NOAA.NDBC:HCEF1:1,2016-06-02T07:00:00Z,25.2540,-80.4440,1.5,9.28,1111122 
ENP,ioos.station.NOAA.NDBC:HCEF1:1,2016-06-02T08:00:00Z,25.2540,-80.4440,1.5,9.37,1111122 
ENP,ioos.station.NOAA.NDBC:HCEF1:1,2016-06-02T10:00:00Z,25.2540,-80.4440,1.5,9.41,1111122 
ENP,ioos.station.NOAA.NDBC:HCEF1:1,2016-06-02T11:00:00Z,25.2540,-80.4440,1.5,9.41,1111122 
ENP,ioos.station.NOAA.NDBC:HCEF1:1,2016-06-02T12:00:00Z,25.2540,-80.4440,1.5,9.4,1111122 
ENP,ioos.station.NOAA.NDBC:HCEF1:1,2016-06-02T13:00:00Z,25.2540,-80.4440,1.5,9.37,1111122 
ENP,ioos.station.NOAA.NDBC:HCEF1:1,2016-06-02T14:00:00Z,25.2540,-80.4440,1.5,9.37,1111122 
ENP,ioos.station.NOAA.NDBC:HCEF1:1,2016-06-02T15:00:00Z,25.2540,-80.4440,1.5,9.37,1111122 
ENP,ioos.station.NOAA.NDBC:HCEF1:1,2016-06-02T16:00:00Z,25.2540,-80.4440,1.5,9.35,1111122 
ENP,ioos.station.NOAA.NDBC:HCEF1:1,2016-06-02T17:00:00Z,25.2540,-80.4440,1.5,9.29,1111122 
ENP,ioos.station.NOAA.NDBC:HCEF1:1,2016-06-02T18:00:00Z,25.2540,-80.4440,1.5,9.34,1111122 
ENP,ioos.station.NOAA.NDBC:HCEF1:1,2016-06-02T19:00:00Z,25.2540,-80.4440,1.5,9.32,1111122 
ENP,ioos.station.NOAA.NDBC:HCEF1:1,2016-06-02T20:00:00Z,25.2540,-80.4440,1.5,9.3,1111122 
ENP,ioos.station.NOAA.NDBC:HCEF1:1,2016-06-02T21:00:00Z,25.2540,-80.4440,1.5,9.3,1111122 
ENP,ioos.station.NOAA.NDBC:HCEF1:1,2016-06-02T22:00:00Z,25.2540,-80.4440,1.5,9.32,1111122 
ENP,ioos.station.NOAA.NDBC:HCEF1:1,2016-06-02T23:00:00Z,25.2540,-80.4440,1.5,9.34,1111122 
ENP,ioos.station.NOAA.NDBC:HCEF1:1,2016-06-03T00:00:00Z,25.2540,-80.4440,1.5,9.33,1111122 
ENP,ioos.station.NOAA.NDBC:HCEF1:1,2016-06-03T03:00:00Z,25.2540,-80.4440,1.5,8.64,1111122 
ENP,ioos.station.NOAA.NDBC:HCEF1:1,2016-06-03T06:00:00Z,25.2540,-80.4440,1.5,9.15,1111122 
ENP,ioos.station.NOAA.NDBC:HCEF1:1,2016-06-03T07:00:00Z,25.2540,-80.4440,1.5,9.32,1111122 
ENP,ioos.station.NOAA.NDBC:HCEF1:1,2016-06-03T08:00:00Z,25.2540,-80.4440,1.5,9.39,1111122 
ENP,ioos.station.NOAA.NDBC:HCEF1:1,2016-06-03T09:00:00Z,25.2540,-80.4440,1.5,9.42,1111122 
ENP,ioos.station.NOAA.NDBC:HCEF1:1,2016-06-03T10:00:00Z,25.2540,-80.4440,1.5,9.42,1111122 
ENP,ioos.station.NOAA.NDBC:HCEF1:1,2016-06-03T11:00:00Z,25.2540,-80.4440,1.5,9.43,1111122 
ENP,ioos.station.NOAA.NDBC:HCEF1:1,2016-06-03T12:00:00Z,25.2540,-80.4440,1.5,9.42,1111122 
ENP,ioos.station.NOAA.NDBC:HCEF1:1,2016-06-03T13:00:00Z,25.2540,-80.4440,1.5,9.33,1111122 
ENP,ioos.station.NOAA.NDBC:HCEF1:1,2016-06-03T14:00:00Z,25.2540,-80.4440,1.5,9.21,1111122 
ENP,ioos.station.NOAA.NDBC:HCEF1:1,2016-06-03T15:00:00Z,25.2540,-80.4440,1.5,9.14,1111122 
ENP,ioos.station.NOAA.NDBC:HCEF1:1,2016-06-03T16:00:00Z,25.2540,-80.4440,1.5,9.04,1111122 
ENP,ioos.station.NOAA.NDBC:HCEF1:1,2016-06-03T17:00:00Z,25.2540,-80.4440,1.5,9.08,1111122 
ENP,ioos.station.NOAA.NDBC:HCEF1:1,2016-06-03T18:00:00Z,25.2540,-80.4440,1.5,9.09,1111122 
ENP,ioos.station.NOAA.NDBC:HCEF1:1,2016-06-03T19:00:00Z,25.2540,-80.4440,1.5,9.22,1111122 
ENP,ioos.station.NOAA.NDBC:HCEF1:1,2016-06-03T20:00:00Z,25.2540,-80.4440,1.5,9.39,1111122 
ENP,ioos.station.NOAA.NDBC:HCEF1:1,2016-06-03T21:00:00Z,25.2540,-80.4440,1.5,9.67,1111122 
ENP,ioos.station.NOAA.NDBC:HCEF1:1,2016-06-03T22:00:00Z,25.2540,-80.4440,1.5,9.79,1111122 
ENP,ioos.station.NOAA.NDBC:HCEF1:1,2016-06-03T23:00:00Z,25.2540,-80.4440,1.5,9.91,1111122 
ENP,ioos.station.NOAA.NDBC:HCEF1:1,2016-06-04T00:00:00Z,25.2540,-80.4440,1.5,9.82,1111122 
ENP,ioos.station.NOAA.NDBC:HCEF1:1,2016-06-04T03:00:00Z,25.2540,-80.4440,1.5,9.35,1111122 
ENP,ioos.station.NOAA.NDBC:HCEF1:1,2016-06-04T06:00:00Z,25.2540,-80.4440,1.5,9.54,1111122 
ENP,ioos.station.NOAA.NDBC:HCEF1:1,2016-06-04T07:00:00Z,25.2540,-80.4440,1.5,9.6,1111122 
ENP,ioos.station.NOAA.NDBC:HCEF1:1,2016-06-04T08:00:00Z,25.2540,-80.4440,1.5,9.56,1111122 
ENP,ioos.station.NOAA.NDBC:HCEF1:1,2016-06-04T10:00:00Z,25.2540,-80.4440,1.5,9.68,1111122 
ENP,ioos.station.NOAA.NDBC:HCEF1:1,2016-06-04T11:00:00Z,25.2540,-80.4440,1.5,9.7,1111122 
ENP,ioos.station.NOAA.NDBC:HCEF1:1,2016-06-04T12:00:00Z,25.2540,-80.4440,1.5,9.68,1111122 
ENP,ioos.station.NOAA.NDBC:HCEF1:1,2016-06-04T13:00:00Z,25.2540,-80.4440,1.5,9.59,1111122 
ENP,ioos.station.NOAA.NDBC:HCEF1:1,2016-06-04T14:00:00Z,25.2540,-80.4440,1.5,9.38,1111122 
ENP,ioos.station.NOAA.NDBC:HCEF1:1,2016-06-04T15:00:00Z,25.2540,-80.4440,1.5,9.0,1111122 
ENP,ioos.station.NOAA.NDBC:HCEF1:1,2016-06-04T16:00:00Z,25.2540,-80.4440,1.5,9.1,1111122 
ENP,ioos.station.NOAA.NDBC:HCEF1:1,2016-06-04T17:00:00Z,25.2540,-80.4440,1.5,9.28,1111122 
ENP,ioos.station.NOAA.NDBC:HCEF1:1,2016-06-04T18:00:00Z,25.2540,-80.4440,1.5,9.65,1111122 
ENP,ioos.station.NOAA.NDBC:HCEF1:1,2016-06-04T19:00:00Z,25.2540,-80.4440,1.5,9.98,1111122 
ENP,ioos.station.NOAA.NDBC:HCEF1:1,2016-06-04T20:00:00Z,25.2540,-80.4440,1.5,10.03,1111122 
ENP,ioos.station.NOAA.NDBC:HCEF1:1,2016-06-04T21:00:00Z,25.2540,-80.4440,1.5,10.16,1111122 
ENP,ioos.station.NOAA.NDBC:HCEF1:1,2016-06-04T22:00:00Z,25.2540,-80.4440,1.5,10.16,1111122 
ENP,ioos.station.NOAA.NDBC:HCEF1:1,2016-06-04T23:00:00Z,25.2540,-80.4440,1.5,10.1,1111122 
ENP,ioos.station.NOAA.NDBC:HCEF1:1,2016-06-05T00:00:00Z,25.2540,-80.4440,1.5,10.0,1111122 
ENP,ioos.station.NOAA.NDBC:HCEF1:1,2016-06-05T03:00:00Z,25.2540,-80.4440,1.5,9.18,1111122 
ENP,ioos.station.NOAA.NDBC:HCEF1:1,2016-06-05T06:00:00Z,25.2540,-80.4440,1.5,9.58,1111122 
ENP,ioos.station.NOAA.NDBC:HCEF1:1,2016-06-05T07:00:00Z,25.2540,-80.4440,1.5,9.74,1111122 
ENP,ioos.station.NOAA.NDBC:HCEF1:1,2016-06-05T08:00:00Z,25.2540,-80.4440,1.5,9.93,1111122 
ENP,ioos.station.NOAA.NDBC:HCEF1:1,2016-06-05T10:00:00Z,25.2540,-80.4440,1.5,9.98,1111122 
ENP,ioos.station.NOAA.NDBC:HCEF1:1,2016-06-05T11:00:00Z,25.2540,-80.4440,1.5,10.04,1111122 
ENP,ioos.station.NOAA.NDBC:HCEF1:1,2016-06-05T12:00:00Z,25.2540,-80.4440,1.5,10.14,1111122 
ENP,ioos.station.NOAA.NDBC:HCEF1:1,2016-06-05T13:00:00Z,25.2540,-80.4440,1.5,10.18,1111122 
ENP,ioos.station.NOAA.NDBC:HCEF1:1,2016-06-05T14:00:00Z,25.2540,-80.4440,1.5,10.26,1111122 
ENP,ioos.station.NOAA.NDBC:HCEF1:1,2016-06-05T15:00:00Z,25.2540,-80.4440,1.5,10.34,1111122 
ENP,ioos.station.NOAA.NDBC:HCEF1:1,2016-06-05T16:00:00Z,25.2540,-80.4440,1.5,10.41,1111122 
ENP,ioos.station.NOAA.NDBC:HCEF1:1,2016-06-05T17:00:00Z,25.2540,-80.4440,1.5,10.42,1111122 
ENP,ioos.station.NOAA.NDBC:HCEF1:1,2016-06-05T18:00:00Z,25.2540,-80.4440,1.5,10.41,1111122 
ENP,ioos.station.NOAA.NDBC:HCEF1:1,2016-06-05T19:00:00Z,25.2540,-80.4440,1.5,10.37,1111122 
ENP,ioos.station.NOAA.NDBC:HCEF1:1,2016-06-05T20:00:00Z,25.2540,-80.4440,1.5,3.72,1111122 
ENP,ioos.station.NOAA.NDBC:HCEF1:1,2016-06-05T21:00:00Z,25.2540,-80.4440,1.5,10.31,1111122 
ENP,ioos.station.NOAA.NDBC:HCEF1:1,2016-06-05T22:00:00Z,25.2540,-80.4440,1.5,10.43,1111122 
ENP,ioos.station.NOAA.NDBC:HCEF1:1,2016-06-05T23:00:00Z,25.2540,-80.4440,1.5,10.39,1111122 
ENP,ioos.station.NOAA.NDBC:HCEF1:1,2016-06-06T00:00:00Z,25.2540,-80.4440,1.5,10.14,1111122 
ENP,ioos.station.NOAA.NDBC:HCEF1:1,2016-06-06T02:00:00Z,25.2540,-80.4440,1.5,10.07,1111122 
ENP,ioos.station.NOAA.NDBC:HCEF1:1,2016-06-06T03:00:00Z,25.2540,-80.4440,1.5,10.12,1111122 
ENP,ioos.station.NOAA.NDBC:HCEF1:1,2016-06-06T05:00:00Z,25.2540,-80.4440,1.5,10.2,1111122 
ENP,ioos.station.NOAA.NDBC:HCEF1:1,2016-06-06T06:00:00Z,25.2540,-80.4440,1.5,10.16,1111122 
ENP,ioos.station.NOAA.NDBC:HCEF1:1,2016-06-06T07:00:00Z,25.2540,-80.4440,1.5,10.19,1111122 
ENP,ioos.station.NOAA.NDBC:HCEF1:1,2016-06-06T08:00:00Z,25.2540,-80.4440,1.5,10.32,1111122 
ENP,ioos.station.NOAA.NDBC:HCEF1:1,2016-06-06T10:00:00Z,25.2540,-80.4440,1.5,10.7,1111122 
ENP,ioos.station.NOAA.NDBC:HCEF1:1,2016-06-06T11:00:00Z,25.2540,-80.4440,1.5,10.76,1111122 
ENP,ioos.station.NOAA.NDBC:HCEF1:1,2016-06-06T12:00:00Z,25.2540,-80.4440,1.5,10.81,1111122 
ENP,ioos.station.NOAA.NDBC:HCEF1:1,2016-06-06T13:00:00Z,25.2540,-80.4440,1.5,10.82,1111122 
ENP,ioos.station.NOAA.NDBC:HCEF1:1,2016-06-06T14:00:00Z,25.2540,-80.4440,1.5,10.88,1111122 
ENP,ioos.station.NOAA.NDBC:HCEF1:1,2016-06-06T15:00:00Z,25.2540,-80.4440,1.5,10.94,1111122 
ENP,ioos.station.NOAA.NDBC:HCEF1:1,2016-06-06T16:00:00Z,25.2540,-80.4440,1.5,10.8,1111122 
ENP,ioos.station.NOAA.NDBC:HCEF1:1,2016-06-06T17:00:00Z,25.2540,-80.4440,1.5,11.01,1111122 
ENP,ioos.station.NOAA.NDBC:HCEF1:1,2016-06-06T18:00:00Z,25.2540,-80.4440,1.5,11.35,1111122 
ENP,ioos.station.NOAA.NDBC:HCEF1:1,2016-06-06T19:00:00Z,25.2540,-80.4440,1.5,11.07,1111122 
ENP,ioos.station.NOAA.NDBC:HCEF1:1,2016-06-06T21:00:00Z,25.2540,-80.4440,1.5,10.95,1111122 
ENP,ioos.station.NOAA.NDBC:HCEF1:1,2016-06-06T22:00:00Z,25.2540,-80.4440,1.5,10.94,1111122 
ENP,ioos.station.NOAA.NDBC:HCEF1:1,2016-06-06T23:00:00Z,25.2540,-80.4440,1.5,11.03,1111122 
ENP,ioos.station.NOAA.NDBC:HCEF1:1,2016-06-07T00:00:00Z,25.2540,-80.4440,1.5,11.14,1111122 
ENP,ioos.station.NOAA.NDBC:HCEF1:1,2016-06-07T03:00:00Z,25.2540,-80.4440,1.5,11.4,1111122 
ENP,ioos.station.NOAA.NDBC:HCEF1:1,2016-06-07T06:00:00Z,25.2540,-80.4440,1.5,10.77,1111122 
ENP,ioos.station.NOAA.NDBC:HCEF1:1,2016-06-07T07:00:00Z,25.2540,-80.4440,1.5,10.6,1111122 
ENP,ioos.station.NOAA.NDBC:HCEF1:1,2016-06-07T08:00:00Z,25.2540,-80.4440,1.5,10.34,1111122 
ENP,ioos.station.NOAA.NDBC:HCEF1:1,2016-06-07T10:00:00Z,25.2540,-80.4440,1.5,11.18,1111122 
ENP,ioos.station.NOAA.NDBC:HCEF1:1,2016-06-07T11:00:00Z,25.2540,-80.4440,1.5,11.57,1111122 
ENP,ioos.station.NOAA.NDBC:HCEF1:1,2016-06-07T12:00:00Z,25.2540,-80.4440,1.5,13.0,1111122 
ENP,ioos.station.NOAA.NDBC:HCEF1:1,2016-06-07T13:00:00Z,25.2540,-80.4440,1.5,11.48,1111122 
ENP,ioos.station.NOAA.NDBC:HCEF1:1,2016-06-07T14:00:00Z,25.2540,-80.4440,1.5,11.37,1111122 
ENP,ioos.station.NOAA.NDBC:HCEF1:1,2016-06-07T15:00:00Z,25.2540,-80.4440,1.5,11.43,1111122 
ENP,ioos.station.NOAA.NDBC:HCEF1:1,2016-06-07T16:00:00Z,25.2540,-80.4440,1.5,11.54,1111122 
ENP,ioos.station.NOAA.NDBC:HCEF1:1,2016-06-07T17:00:00Z,25.2540,-80.4440,1.5,11.6,1111122 
ENP,ioos.station.NOAA.NDBC:HCEF1:1,2016-06-07T18:00:00Z,25.2540,-80.4440,1.5,11.74,1111122 
ENP,ioos.station.NOAA.NDBC:HCEF1:1,2016-06-07T19:00:00Z,25.2540,-80.4440,1.5,12.77,1111122 
ENP,ioos.station.NOAA.NDBC:HCEF1:1,2016-06-07T20:00:00Z,25.2540,-80.4440,1.5,13.36,1111122 
ENP,ioos.station.NOAA.NDBC:HCEF1:1,2016-06-07T21:00:00Z,25.2540,-80.4440,1.5,13.19,1111122 
ENP,ioos.station.NOAA.NDBC:HCEF1:1,2016-06-07T22:00:00Z,25.2540,-80.4440,1.5,13.28,1111122 
ENP,ioos.station.NOAA.NDBC:HCEF1:1,2016-06-07T23:00:00Z,25.2540,-80.4440,1.5,13.42,1111122 
ENP,ioos.station.NOAA.NDBC:HCEF1:1,2016-06-08T00:00:00Z,25.2540,-80.4440,1.5,13.6,1111122 
ENP,ioos.station.NOAA.NDBC:HCEF1:1,2016-06-08T03:00:00Z,25.2540,-80.4440,1.5,14.66,1111122 
ENP,ioos.station.NOAA.NDBC:HCEF1:1,2016-06-08T06:00:00Z,25.2540,-80.4440,1.5,13.78,1111122 
ENP,ioos.station.NOAA.NDBC:HCEF1:1,2016-06-08T07:00:00Z,25.2540,-80.4440,1.5,13.4,1111122 
ENP,ioos.station.NOAA.NDBC:HCEF1:1,2016-06-08T08:00:00Z,25.2540,-80.4440,1.5,13.45,1111122 
ENP,ioos.station.NOAA.NDBC:HCEF1:1,2016-06-08T10:00:00Z,25.2540,-80.4440,1.5,15.3,1111122 
ENP,ioos.station.NOAA.NDBC:HCEF1:1,2016-06-08T11:00:00Z,25.2540,-80.4440,1.5,15.6,1111122 
ENP,ioos.station.NOAA.NDBC:HCEF1:1,2016-06-08T12:00:00Z,25.2540,-80.4440,1.5,15.66,1111122 
ENP,ioos.station.NOAA.NDBC:HCEF1:1,2016-06-08T13:00:00Z,25.2540,-80.4440,1.5,14.74,1111122 
ENP,ioos.station.NOAA.NDBC:HCEF1:1,2016-06-08T14:00:00Z,25.2540,-80.4440,1.5,15.66,1111122 
ENP,ioos.station.NOAA.NDBC:HCEF1:1,2016-06-08T15:00:00Z,25.2540,-80.4440,1.5,16.52,1111122 
ENP,ioos.station.NOAA.NDBC:HCEF1:1,2016-06-08T16:00:00Z,25.2540,-80.4440,1.5,16.66,1111122 
ENP,ioos.station.NOAA.NDBC:HCEF1:1,2016-06-08T17:00:00Z,25.2540,-80.4440,1.5,16.69,1111122 
ENP,ioos.station.NOAA.NDBC:HCEF1:1,2016-06-08T18:00:00Z,25.2540,-80.4440,1.5,16.73,1111122 
ENP,ioos.station.NOAA.NDBC:HCEF1:1,2016-06-08T19:00:00Z,25.2540,-80.4440,1.5,15.69,1111122 
ENP,ioos.station.NOAA.NDBC:HCEF1:1,2016-06-08T20:00:00Z,25.2540,-80.4440,1.5,15.67,1111122 
ENP,ioos.station.NOAA.NDBC:HCEF1:1,2016-06-08T21:00:00Z,25.2540,-80.4440,1.5,14.97,1111122 
ENP,ioos.station.NOAA.NDBC:HCEF1:1,2016-06-08T22:00:00Z,25.2540,-80.4440,1.5,15.04,1111122 
ENP,ioos.station.NOAA.NDBC:HCEF1:1,2016-06-08T23:00:00Z,25.2540,-80.4440,1.5,15.17,1111122 
ENP,ioos.station.NOAA.NDBC:HCEF1:1,2016-06-09T00:00:00Z,25.2540,-80.4440,1.5,15.39,1111122 
ENP,ioos.station.NOAA.NDBC:HCEF1:1,2016-06-09T03:00:00Z,25.2540,-80.4440,1.5,16.16,1111122 
ENP,ioos.station.NOAA.NDBC:HCEF1:1,2016-06-09T06:00:00Z,25.2540,-80.4440,1.5,15.39,1111122 
ENP,ioos.station.NOAA.NDBC:HCEF1:1,2016-06-09T07:00:00Z,25.2540,-80.4440,1.5,15.78,1111122 
ENP,ioos.station.NOAA.NDBC:HCEF1:1,2016-06-09T08:00:00Z,25.2540,-80.4440,1.5,14.91,1111122 
ENP,ioos.station.NOAA.NDBC:HCEF1:1,2016-06-09T10:00:00Z,25.2540,-80.4440,1.5,13.61,1111122 
ENP,ioos.station.NOAA.NDBC:HCEF1:1,2016-06-09T11:00:00Z,25.2540,-80.4440,1.5,13.84,1111122 
ENP,ioos.station.NOAA.NDBC:HCEF1:1,2016-06-09T12:00:00Z,25.2540,-80.4440,1.5,14.72,1111122 
ENP,ioos.station.NOAA.NDBC:HCEF1:1,2016-06-09T13:00:00Z,25.2540,-80.4440,1.5,14.31,1111122 
ENP,ioos.station.NOAA.NDBC:HCEF1:1,2016-06-09T14:00:00Z,25.2540,-80.4440,1.5,14.27,1111122 
ENP,ioos.station.NOAA.NDBC:HCEF1:1,2016-06-09T15:00:00Z,25.2540,-80.4440,1.5,14.04,1111122 
ENP,ioos.station.NOAA.NDBC:HCEF1:1,2016-06-09T16:00:00Z,25.2540,-80.4440,1.5,13.98,1111122 
ENP,ioos.station.NOAA.NDBC:HCEF1:1,2016-06-09T17:00:00Z,25.2540,-80.4440,1.5,13.57,1111122 
ENP,ioos.station.NOAA.NDBC:HCEF1:1,2016-06-09T18:00:00Z,25.2540,-80.4440,1.5,13.54,1111122 
ENP,ioos.station.NOAA.NDBC:HCEF1:1,2016-06-09T19:00:00Z,25.2540,-80.4440,1.5,13.5,1111122 
ENP,ioos.station.NOAA.NDBC:HCEF1:1,2016-06-09T20:00:00Z,25.2540,-80.4440,1.5,13.51,1111122 
ENP,ioos.station.NOAA.NDBC:HCEF1:1,2016-06-09T21:00:00Z,25.2540,-80.4440,1.5,13.53,1111122 
ENP,ioos.station.NOAA.NDBC:HCEF1:1,2016-06-09T22:00:00Z,25.2540,-80.4440,1.5,13.51,1111122 
ENP,ioos.station.NOAA.NDBC:HCEF1:1,2016-06-09T23:00:00Z,25.2540,-80.4440,1.5,13.63,1111122 
ENP,ioos.station.NOAA.NDBC:HCEF1:1,2016-06-10T00:00:00Z,25.2540,-80.4440,1.5,14.21,1111122 
ENP,ioos.station.NOAA.NDBC:HCEF1:1,2016-06-10T03:00:00Z,25.2540,-80.4440,1.5,13.97,1111122 
ENP,ioos.station.NOAA.NDBC:HCEF1:1,2016-06-10T06:00:00Z,25.2540,-80.4440,1.5,13.73,1111122 
ENP,ioos.station.NOAA.NDBC:HCEF1:1,2016-06-10T07:00:00Z,25.2540,-80.4440,1.5,13.9,1111122 
ENP,ioos.station.NOAA.NDBC:HCEF1:1,2016-06-10T08:00:00Z,25.2540,-80.4440,1.5,12.81,1111122 
ENP,ioos.station.NOAA.NDBC:HCEF1:1,2016-06-10T09:00:00Z,25.2540,-80.4440,1.5,12.52,1111122 
ENP,ioos.station.NOAA.NDBC:HCEF1:1,2016-06-10T10:00:00Z,25.2540,-80.4440,1.5,13.6,1111122 
ENP,ioos.station.NOAA.NDBC:HCEF1:1,2016-06-10T11:00:00Z,25.2540,-80.4440,1.5,13.43,1111122 
ENP,ioos.station.NOAA.NDBC:HCEF1:1,2016-06-10T12:00:00Z,25.2540,-80.4440,1.5,13.71,1111122 
ENP,ioos.station.NOAA.NDBC:HCEF1:1,2016-06-10T13:00:00Z,25.2540,-80.4440,1.5,12.7,1111122 
ENP,ioos.station.NOAA.NDBC:HCEF1:1,2016-06-10T14:00:00Z,25.2540,-80.4440,1.5,13.23,1111122 
ENP,ioos.station.NOAA.NDBC:HCEF1:1,2016-06-10T15:00:00Z,25.2540,-80.4440,1.5,13.6,1111122 
ENP,ioos.station.NOAA.NDBC:HCEF1:1,2016-06-10T16:00:00Z,25.2540,-80.4440,1.5,13.76,1111122 
ENP,ioos.station.NOAA.NDBC:HCEF1:1,2016-06-10T17:00:00Z,25.2540,-80.4440,1.5,13.37,1111122 
ENP,ioos.station.NOAA.NDBC:HCEF1:1,2016-06-10T18:00:00Z,25.2540,-80.4440,1.5,13.34,1111122 
ENP,ioos.station.NOAA.NDBC:HCEF1:1,2016-06-10T19:00:00Z,25.2540,-80.4440,1.5,13.35,1111122 
ENP,ioos.station.NOAA.NDBC:HCEF1:1,2016-06-10T20:00:00Z,25.2540,-80.4440,1.5,12.69,1111122 
ENP,ioos.station.NOAA.NDBC:HCEF1:1,2016-06-10T21:00:00Z,25.2540,-80.4440,1.5,12.58,1111122 
ENP,ioos.station.NOAA.NDBC:HCEF1:1,2016-06-10T22:00:00Z,25.2540,-80.4440,1.5,11.45,1111122 
ENP,ioos.station.NOAA.NDBC:HCEF1:1,2016-06-10T23:00:00Z,25.2540,-80.4440,1.5,10.65,1111122 
ENP,ioos.station.NOAA.NDBC:HCEF1:1,2016-06-11T00:00:00Z,25.2540,-80.4440,1.5,10.76,1111122 
ENP,ioos.station.NOAA.NDBC:HCEF1:1,2016-06-11T03:00:00Z,25.2540,-80.4440,1.5,12.21,1111122 
ENP,ioos.station.NOAA.NDBC:HCEF1:1,2016-06-11T06:00:00Z,25.2540,-80.4440,1.5,12.18,1111122 
ENP,ioos.station.NOAA.NDBC:HCEF1:1,2016-06-11T07:00:00Z,25.2540,-80.4440,1.5,11.88,1111122 
ENP,ioos.station.NOAA.NDBC:HCEF1:1,2016-06-11T08:00:00Z,25.2540,-80.4440,1.5,12.11,1111122 
ENP,ioos.station.NOAA.NDBC:HCEF1:1,2016-06-11T10:00:00Z,25.2540,-80.4440,1.5,12.58,1111122 
ENP,ioos.station.NOAA.NDBC:HCEF1:1,2016-06-11T11:00:00Z,25.2540,-80.4440,1.5,12.44,1111122 
ENP,ioos.station.NOAA.NDBC:HCEF1:1,2016-06-11T12:00:00Z,25.2540,-80.4440,1.5,12.49,1111122 
ENP,ioos.station.NOAA.NDBC:HCEF1:1,2016-06-11T13:00:00Z,25.2540,-80.4440,1.5,12.32,1111122 
ENP,ioos.station.NOAA.NDBC:HCEF1:1,2016-06-11T14:00:00Z,25.2540,-80.4440,1.5,12.36,1111122 
ENP,ioos.station.NOAA.NDBC:HCEF1:1,2016-06-11T15:00:00Z,25.2540,-80.4440,1.5,12.5,1111122 
ENP,ioos.station.NOAA.NDBC:HCEF1:1,2016-06-11T16:00:00Z,25.2540,-80.4440,1.5,12.26,1111122 
ENP,ioos.station.NOAA.NDBC:HCEF1:1,2016-06-11T17:00:00Z,25.2540,-80.4440,1.5,10.85,1111122 
ENP,ioos.station.NOAA.NDBC:HCEF1:1,2016-06-11T18:00:00Z,25.2540,-80.4440,1.5,10.05,1111122 
ENP,ioos.station.NOAA.NDBC:HCEF1:1,2016-06-11T19:00:00Z,25.2540,-80.4440,1.5,9.91,1111122 
ENP,ioos.station.NOAA.NDBC:HCEF1:1,2016-06-11T20:00:00Z,25.2540,-80.4440,1.5,9.89,1111122 
ENP,ioos.station.NOAA.NDBC:HCEF1:1,2016-06-11T21:00:00Z,25.2540,-80.4440,1.5,9.92,1111122 
ENP,ioos.station.NOAA.NDBC:HCEF1:1,2016-06-11T22:00:00Z,25.2540,-80.4440,1.5,9.99,1111122 
ENP,ioos.station.NOAA.NDBC:HCEF1:1,2016-06-11T23:00:00Z,25.2540,-80.4440,1.5,10.03,1111122 
ENP,ioos.station.NOAA.NDBC:HCEF1:1,2016-06-12T00:00:00Z,25.2540,-80.4440,1.5,9.84,1111122 
ENP,ioos.station.NOAA.NDBC:HCEF1:1,2016-06-12T03:00:00Z,25.2540,-80.4440,1.5,10.0,1111122 
ENP,ioos.station.NOAA.NDBC:HCEF1:1,2016-06-12T06:00:00Z,25.2540,-80.4440,1.5,10.22,1111122 
ENP,ioos.station.NOAA.NDBC:HCEF1:1,2016-06-12T07:00:00Z,25.2540,-80.4440,1.5,10.42,1111122 
ENP,ioos.station.NOAA.NDBC:HCEF1:1,2016-06-12T08:00:00Z,25.2540,-80.4440,1.5,10.43,1111122 
ENP,ioos.station.NOAA.NDBC:HCEF1:1,2016-06-12T10:00:00Z,25.2540,-80.4440,1.5,10.66,1111122 
ENP,ioos.station.NOAA.NDBC:HCEF1:1,2016-06-12T11:00:00Z,25.2540,-80.4440,1.5,10.25,1111122 
ENP,ioos.station.NOAA.NDBC:HCEF1:1,2016-06-12T12:00:00Z,25.2540,-80.4440,1.5,9.39,1111122 
ENP,ioos.station.NOAA.NDBC:HCEF1:1,2016-06-12T13:00:00Z,25.2540,-80.4440,1.5,8.71,1111122 
ENP,ioos.station.NOAA.NDBC:HCEF1:1,2016-06-12T14:00:00Z,25.2540,-80.4440,1.5,8.13,1111122 
ENP,ioos.station.NOAA.NDBC:HCEF1:1,2016-06-12T15:00:00Z,25.2540,-80.4440,1.5,7.75,1111122 
ENP,ioos.station.NOAA.NDBC:HCEF1:1,2016-06-12T16:00:00Z,25.2540,-80.4440,1.5,7.74,1111122 
ENP,ioos.station.NOAA.NDBC:HCEF1:1,2016-06-12T17:00:00Z,25.2540,-80.4440,1.5,8.24,1111122 
ENP,ioos.station.NOAA.NDBC:HCEF1:1,2016-06-12T18:00:00Z,25.2540,-80.4440,1.5,7.86,1111122 
ENP,ioos.station.NOAA.NDBC:HCEF1:1,2016-06-12T19:00:00Z,25.2540,-80.4440,1.5,7.87,1111122 
ENP,ioos.station.NOAA.NDBC:HCEF1:1,2016-06-12T20:00:00Z,25.2540,-80.4440,1.5,7.89,1111122 
ENP,ioos.station.NOAA.NDBC:HCEF1:1,2016-06-12T21:00:00Z,25.2540,-80.4440,1.5,7.72,1111122 
ENP,ioos.station.NOAA.NDBC:HCEF1:1,2016-06-12T22:00:00Z,25.2540,-80.4440,1.5,7.6,1111122 
ENP,ioos.station.NOAA.NDBC:HCEF1:1,2016-06-12T23:00:00Z,25.2540,-80.4440,1.5,7.65,1111122 
ENP,ioos.station.NOAA.NDBC:HCEF1:1,2016-06-13T00:00:00Z,25.2540,-80.4440,1.5,7.67,1111122 
ENP,ioos.station.NOAA.NDBC:HCEF1:1,2016-06-13T02:00:00Z,25.2540,-80.4440,1.5,7.47,1111122 
ENP,ioos.station.NOAA.NDBC:HCEF1:1,2016-06-13T03:00:00Z,25.2540,-80.4440,1.5,7.54,1111122 
ENP,ioos.station.NOAA.NDBC:HCEF1:1,2016-06-13T05:00:00Z,25.2540,-80.4440,1.5,7.55,1111122 
ENP,ioos.station.NOAA.NDBC:HCEF1:1,2016-06-13T06:00:00Z,25.2540,-80.4440,1.5,7.61,1111122 
ENP,ioos.station.NOAA.NDBC:HCEF1:1,2016-06-13T07:00:00Z,25.2540,-80.4440,1.5,7.62,1111122 
ENP,ioos.station.NOAA.NDBC:HCEF1:1,2016-06-13T08:00:00Z,25.2540,-80.4440,1.5,7.54,1111122 
ENP,ioos.station.NOAA.NDBC:HCEF1:1,2016-06-13T10:00:00Z,25.2540,-80.4440,1.5,7.53,1111122 
ENP,ioos.station.NOAA.NDBC:HCEF1:1,2016-06-13T11:00:00Z,25.2540,-80.4440,1.5,7.53,1111122 
ENP,ioos.station.NOAA.NDBC:HCEF1:1,2016-06-13T12:00:00Z,25.2540,-80.4440,1.5,7.56,1111122 
ENP,ioos.station.NOAA.NDBC:HCEF1:1,2016-06-13T13:00:00Z,25.2540,-80.4440,1.5,7.59,1111122 
ENP,ioos.station.NOAA.NDBC:HCEF1:1,2016-06-13T14:00:00Z,25.2540,-80.4440,1.5,7.6,1111122 
ENP,ioos.station.NOAA.NDBC:HCEF1:1,2016-06-13T15:00:00Z,25.2540,-80.4440,1.5,7.64,1111122 
ENP,ioos.station.NOAA.NDBC:HCEF1:1,2016-06-13T16:00:00Z,25.2540,-80.4440,1.5,7.66,1111122 
ENP,ioos.station.NOAA.NDBC:HCEF1:1,2016-06-13T17:00:00Z,25.2540,-80.4440,1.5,7.65,1111122 
ENP,ioos.station.NOAA.NDBC:HCEF1:1,2016-06-13T18:00:00Z,25.2540,-80.4440,1.5,7.48,1111122 
ENP,ioos.station.NOAA.NDBC:HCEF1:1,2016-06-13T19:00:00Z,25.2540,-80.4440,1.5,6.07,1111122 
ENP,ioos.station.NOAA.NDBC:HCEF1:1,2016-06-13T20:00:00Z,25.2540,-80.4440,1.5,5.51,1111122 
ENP,ioos.station.NOAA.NDBC:HCEF1:1,2016-06-13T21:00:00Z,25.2540,-80.4440,1.5,5.19,1111122 
ENP,ioos.station.NOAA.NDBC:HCEF1:1,2016-06-13T22:00:00Z,25.2540,-80.4440,1.5,4.97,1111122 
ENP,ioos.station.NOAA.NDBC:HCEF1:1,2016-06-13T23:00:00Z,25.2540,-80.4440,1.5,4.84,1111122 
ENP,ioos.station.NOAA.NDBC:HCEF1:1,2016-06-14T00:00:00Z,25.2540,-80.4440,1.5,4.78,1111122 
ENP,ioos.station.NOAA.NDBC:HCEF1:1,2016-06-14T03:00:00Z,25.2540,-80.4440,1.5,4.8,1111122 
ENP,ioos.station.NOAA.NDBC:HCEF1:1,2016-06-14T06:00:00Z,25.2540,-80.4440,1.5,4.81,1111122 
ENP,ioos.station.NOAA.NDBC:HCEF1:1,2016-06-14T07:00:00Z,25.2540,-80.4440,1.5,4.82,1111122 
ENP,ioos.station.NOAA.NDBC:HCEF1:1,2016-06-14T08:00:00Z,25.2540,-80.4440,1.5,4.84,1111122 
ENP,ioos.station.NOAA.NDBC:HCEF1:1,2016-06-14T10:00:00Z,25.2540,-80.4440,1.5,4.83,1111122 
ENP,ioos.station.NOAA.NDBC:HCEF1:1,2016-06-14T11:00:00Z,25.2540,-80.4440,1.5,4.82,1111122 
ENP,ioos.station.NOAA.NDBC:HCEF1:1,2016-06-14T12:00:00Z,25.2540,-80.4440,1.5,4.82,1111122 